TimeHST,TemperatureF,Dew PointF,Humidity,Sea Level PressureIn,VisibilityMPH,Wind Direction,Wind SpeedMPH,Gust SpeedMPH,PrecipitationIn,Events,Conditions,WindDirDegrees,DateUTC
12:16 AM,32.0,-16.6,12,30.20,10.0,WNW,13.8,25.3,N/A,,Overcast,300,2012-12-18 10:16:00
12:36 AM,32.0,-16.6,12,30.22,10.0,NW,18.4,32.2,N/A,,Overcast,310,2012-12-18 10:36:00
12:56 AM,32.0,-16.6,12,30.23,10.0,WNW,13.8,24.2,N/A,,Overcast,300,2012-12-18 10:56:00
1:16 AM,32.0,-16.6,12,30.25,10.0,WNW,17.3,23.0,N/A,,Overcast,300,2012-12-18 11:16:00
1:36 AM,32.0,-16.6,12,30.25,10.0,WNW,20.7,27.6,N/A,,Overcast,300,2012-12-18 11:36:00
2:16 AM,32.0,-16.6,12,30.28,7.0,West,24.2,36.8,N/A,,Mostly Cloudy,280,2012-12-18 12:16:00
2:36 AM,30.2,-16.6,13,30.28,10.0,West,13.8,-,N/A,,Overcast,280,2012-12-18 12:36:00
2:56 AM,30.2,-16.6,13,30.29,10.0,WNW,17.3,24.2,N/A,,Mostly Cloudy,300,2012-12-18 12:56:00
3:16 AM,30.2,-16.6,13,30.30,10.0,WNW,15.0,-,N/A,,Scattered Clouds,300,2012-12-18 13:16:00
3:36 AM,32.0,-16.6,12,30.31,10.0,WNW,16.1,20.7,N/A,,Mostly Cloudy,300,2012-12-18 13:36:00
3:56 AM,32.0,-16.6,12,30.31,10.0,NW,19.6,24.2,N/A,,Mostly Cloudy,310,2012-12-18 13:56:00
4:16 AM,32.0,-16.6,12,30.33,10.0,WNW,16.1,23.0,N/A,,Overcast,300,2012-12-18 14:16:00
4:36 AM,32.0,-16.6,12,30.35,7.0,WNW,19.6,32.2,N/A,,Overcast,300,2012-12-18 14:36:00
4:56 AM,28.4,-16.6,13,30.35,10.0,WNW,15.0,20.7,N/A,,Mostly Cloudy,290,2012-12-18 14:56:00
5:16 AM,30.2,-16.6,13,30.36,10.0,WNW,15.0,24.2,N/A,,Mostly Cloudy,300,2012-12-18 15:16:00
5:36 AM,32.0,-16.6,12,30.37,10.0,WNW,17.3,25.3,N/A,,Mostly Cloudy,290,2012-12-18 15:36:00
5:56 AM,30.2,-16.6,13,30.37,10.0,WNW,13.8,-,N/A,,Mostly Cloudy,300,2012-12-18 15:56:00
6:16 AM,30.2,-16.6,13,30.38,10.0,WNW,19.6,26.5,N/A,,Scattered Clouds,290,2012-12-18 16:16:00
6:36 AM,32.0,-16.6,12,30.39,10.0,WNW,17.3,24.2,N/A,,Scattered Clouds,300,2012-12-18 16:36:00
6:56 AM,32.0,-16.6,12,30.40,10.0,WNW,21.9,26.5,N/A,,Mostly Cloudy,300,2012-12-18 16:56:00
7:16 AM,30.2,-16.6,13,30.42,10.0,WNW,15.0,24.2,N/A,,Scattered Clouds,300,2012-12-18 17:16:00
7:36 AM,30.2,-16.6,13,30.42,10.0,WNW,17.3,27.6,N/A,,Scattered Clouds,300,2012-12-18 17:36:00
7:56 AM,32.0,-16.6,12,30.44,10.0,WNW,17.3,24.2,N/A,,Mostly Cloudy,300,2012-12-18 17:56:00
8:16 AM,32.0,-16.6,12,30.44,10.0,NW,18.4,27.6,N/A,,Mostly Cloudy,310,2012-12-18 18:16:00
8:36 AM,30.2,-16.6,13,30.46,3.0,NW,19.6,31.1,N/A,,Mostly Cloudy,310,2012-12-18 18:36:00
8:56 AM,30.2,-16.6,13,30.46,10.0,WNW,18.4,24.2,N/A,,Scattered Clouds,290,2012-12-18 18:56:00
9:16 AM,30.2,-16.6,13,30.48,10.0,WNW,13.8,24.2,N/A,,Mostly Cloudy,300,2012-12-18 19:16:00
9:36 AM,32.0,-16.6,12,30.48,10.0,WNW,17.3,20.7,N/A,,Overcast,300,2012-12-18 19:36:00
9:56 AM,32.0,-16.6,12,30.49,10.0,WNW,20.7,31.1,N/A,,Mostly Cloudy,290,2012-12-18 19:56:00
10:16 AM,32.0,-16.6,12,30.51,10.0,WNW,18.4,24.2,N/A,,Partly Cloudy,290,2012-12-18 20:16:00
10:36 AM,30.2,-16.6,13,30.51,10.0,WNW,16.1,21.9,N/A,,Partly Cloudy,300,2012-12-18 20:36:00
10:56 AM,32.0,-16.6,12,30.51,10.0,WNW,19.6,26.5,N/A,,Clear,300,2012-12-18 20:56:00
11:16 AM,33.8,-14.8,12,30.52,10.0,WNW,17.3,24.2,N/A,,Clear,300,2012-12-18 21:16:00
11:36 AM,33.8,-14.8,12,30.52,10.0,NW,13.8,-,N/A,,Scattered Clouds,310,2012-12-18 21:36:00
11:56 AM,33.8,-14.8,12,30.53,10.0,WNW,16.1,20.7,N/A,,Mostly Cloudy,300,2012-12-18 21:56:00
12:16 PM,35.6,-14.8,11,30.54,10.0,WNW,13.8,-,N/A,,Mostly Cloudy,300,2012-12-18 22:16:00
12:36 PM,35.6,-13.0,12,30.54,10.0,WNW,16.1,-,N/A,,Overcast,300,2012-12-18 22:36:00
12:56 PM,35.6,-13.0,12,30.55,10.0,WNW,18.4,25.3,N/A,,Scattered Clouds,300,2012-12-18 22:56:00
1:16 PM,35.6,-9999,N/A,30.56,10.0,WNW,15.0,20.7,N/A,,Clear,290,2012-12-18 23:16:00
1:36 PM,37.4,-13.0,11,30.57,10.0,West,12.7,-,N/A,,Mostly Cloudy,280,2012-12-18 23:36:00
1:56 PM,37.4,-13.0,11,30.59,10.0,West,18.4,23.0,N/A,,Overcast,280,2012-12-18 23:56:00
2:16 PM,37.4,-13.0,11,30.59,10.0,WNW,17.3,-,N/A,,Overcast,300,2012-12-19 00:16:00
2:36 PM,35.6,-13.0,12,30.59,10.0,West,13.8,23.0,N/A,,Overcast,280,2012-12-19 00:36:00
2:56 PM,37.4,-11.2,12,30.58,10.0,West,12.7,20.7,N/A,,Mostly Cloudy,270,2012-12-19 00:56:00
3:16 PM,37.4,-13.0,11,30.58,10.0,West,12.7,23.0,N/A,,Partly Cloudy,270,2012-12-19 01:16:00
3:36 PM,35.6,-13.0,12,30.58,10.0,West,17.3,23.0,N/A,,Partly Cloudy,270,2012-12-19 01:36:00
3:56 PM,35.6,-13.0,12,30.58,10.0,West,11.5,-,N/A,,Partly Cloudy,260,2012-12-19 01:56:00
4:16 PM,35.6,-13.0,12,30.58,10.0,WSW,9.2,-,N/A,,Mostly Cloudy,250,2012-12-19 02:16:00
4:36 PM,35.6,-13.0,12,30.59,10.0,West,9.2,16.1,N/A,,Overcast,270,2012-12-19 02:36:00
4:56 PM,35.6,-13.0,12,30.60,6.0,West,17.3,28.8,N/A,,Overcast,280,2012-12-19 02:56:00
6:16 PM,35.6,-14.8,11,30.62,10.0,West,17.3,20.7,N/A,,Unknown,280,2012-12-19 04:16:00
6:36 PM,35.6,-13.0,12,30.62,10.0,NW,18.4,25.3,N/A,,Mostly Cloudy,310,2012-12-19 04:36:00
6:56 PM,35.6,-13.0,12,30.63,10.0,WNW,18.4,24.2,N/A,,Mostly Cloudy,300,2012-12-19 04:56:00
7:16 PM,35.6,-13.0,12,30.63,10.0,WNW,17.3,24.2,N/A,,Mostly Cloudy,300,2012-12-19 05:16:00
7:36 PM,35.6,-13.0,12,30.64,10.0,West,17.3,28.8,N/A,,Overcast,280,2012-12-19 05:36:00
7:56 PM,33.8,-14.8,12,30.65,10.0,West,11.5,-,N/A,,Mostly Cloudy,280,2012-12-19 05:56:00
8:16 PM,35.6,-14.8,11,30.65,10.0,West,12.7,-,N/A,,Overcast,280,2012-12-19 06:16:00
8:36 PM,35.6,-13.0,12,30.65,10.0,WNW,10.4,-,N/A,,Overcast,300,2012-12-19 06:36:00
8:56 PM,33.8,-14.8,12,30.66,10.0,WNW,11.5,-,N/A,,Mostly Cloudy,300,2012-12-19 06:56:00
9:16 PM,33.8,-14.8,12,30.65,10.0,WNW,10.4,-,N/A,,Mostly Cloudy,300,2012-12-19 07:16:00
9:36 PM,35.6,-9999,N/A,30.65,10.0,WNW,9.2,-,N/A,,Overcast,290,2012-12-19 07:36:00
9:56 PM,35.6,-14.8,11,30.66,10.0,WNW,8.1,-,N/A,,Overcast,300,2012-12-19 07:56:00
10:16 PM,33.8,-14.8,12,30.65,10.0,NW,9.2,-,N/A,,Overcast,310,2012-12-19 08:16:00
10:36 PM,32.0,-14.8,13,30.65,10.0,WNW,5.8,-,N/A,,Scattered Clouds,290,2012-12-19 08:36:00
10:56 PM,30.2,-16.6,13,30.66,10.0,WNW,4.6,-,N/A,,Partly Cloudy,300,2012-12-19 08:56:00
11:16 PM,30.2,-18.4,11,30.67,10.0,NW,4.6,-,N/A,,Clear,310,2012-12-19 09:16:00
11:36 PM,28.4,-18.4,12,30.67,10.0,Calm,Calm,-,N/A,,Clear,0,2012-12-19 09:36:00
11:56 PM,28.4,-18.4,12,30.67,10.0,Calm,Calm,-,N/A,,Clear,0,2012-12-19 09:56:00